Weather History for Manitowoc, WI

Change the Weather History Date:

Saturday, October 6, 2012

  Actual Average Record
Temperature  
Mean Temperature 42 °F -  
Max Temperature 46 °F 61 °F 89 °F (1963)
Min Temperature 37 °F 43 °F 28 °F (2003)
Degree Days  
Heating Degree Days 24    
Moisture  
Dew Point 27 °F    
Average Humidity 57    
Maximum Humidity 65    
Minimum Humidity 49    
Precipitation  
Precipitation 0.00 in - - ()
Sea Level Pressure  
Sea Level Pressure 30.05 in    
Wind  
Wind Speed 12 mph (WNW)    
Max Wind Speed 18 mph    
Max Gust Speed 25 mph    
Visibility 10 miles    
Events      
Averages and records for this station are not official NWS values.
T = Trace of Precipitation, MM = Missing Value Source: NWS Daily Summary

Daily Weather History Graph

Daily Weather History Graph

Search for Another Location

Airport:

Trip Planner

Search our weather history database for the weather conditions in past years. The results will help you decide how hot, cold, wet, or windy it might be!

Date:

Astronomy

Oct. 06, 2012 Rise Set
Actual Time 6:55 AM CDT 6:21 PM CDT
Civil Twilight 6:26 AM CDT 6:50 PM CDT
Nautical Twilight 5:52 AM CDT 7:23 PM CDT
Astronomical Twilight 5:18 AM CDT 7:57 PM CDT
Moon 10:27 PM CDT (10/6) 12:59 PM CDT (10/6)
Length of Visible Light 12h 24m
Length of Day
11h 26m
Waning Gibbous, 65% of the Moon is Illuminated
Oct 6
Waning Gibbous
Oct 8
Last Quarter
Oct 15
New
Oct 21
First Quarter
Oct 29
Full

Hourly Weather History & Observations

Time (CDT) Temp. Windchill Dew Point Humidity Pressure Visibility Wind Dir Wind Speed Gust Speed Precip Events Conditions
12:15 AM - - - N/A% 29.97 in 10.0 mi West 13.8 mph - N/A   Scattered Clouds
12:35 AM - - - N/A% 29.97 in 10.0 mi West 8.1 mph - N/A   Clear
12:55 AM - - - N/A% 29.97 in 10.0 mi West 10.4 mph 16.1 mph N/A   Clear
1:15 AM - - - N/A% 29.98 in 10.0 mi West 11.5 mph 19.6 mph N/A   Clear
1:55 AM - - - N/A% 29.97 in 10.0 mi West 15.0 mph 23.0 mph N/A   Clear
2:15 AM - - - N/A% 29.97 in 10.0 mi West 10.4 mph 18.4 mph N/A   Clear
2:35 AM - - - N/A% 29.97 in 10.0 mi West 12.7 mph - N/A   Clear
2:55 AM - - - N/A% 29.97 in 10.0 mi West 10.4 mph 19.6 mph N/A   Clear
3:15 AM - - - N/A% 29.96 in 10.0 mi West 13.8 mph - N/A   Clear
3:35 AM - - - N/A% 29.97 in 10.0 mi West 11.5 mph 19.6 mph N/A   Clear
3:55 AM - - - N/A% 29.97 in 10.0 mi West 12.7 mph 20.7 mph N/A   Clear
4:35 AM - - - N/A% 29.97 in 10.0 mi West 11.5 mph - N/A   Clear
4:55 AM - - - N/A% 29.97 in 10.0 mi West 13.8 mph 18.4 mph N/A   Clear
5:15 AM - - - N/A% 29.98 in 10.0 mi West 12.7 mph - N/A   Clear
5:35 AM - - - N/A% 29.98 in 10.0 mi West 13.8 mph 19.6 mph N/A   Clear
5:55 AM 37.4 °F 29.3 °F 26.6 °F 65% 29.99 in 10.0 mi West 12.7 mph - N/A   Clear
6:15 AM 37.4 °F 29.8 °F 26.6 °F 65% 30.00 in 10.0 mi West 11.5 mph 16.1 mph N/A   Clear
6:35 AM 37.4 °F 29.8 °F 26.6 °F 65% 30.00 in 10.0 mi West 11.5 mph - N/A   Clear
6:55 AM 37.4 °F 29.3 °F 26.6 °F 65% 30.01 in 10.0 mi West 12.7 mph 17.3 mph N/A   Clear
7:15 AM 37.4 °F 30.3 °F 26.6 °F 65% 30.02 in 10.0 mi West 10.4 mph - N/A   Clear
7:35 AM 39.2 °F 31.6 °F 26.6 °F 61% 30.03 in 10.0 mi West 12.7 mph 18.4 mph N/A   Clear
7:55 AM 39.2 °F 31.2 °F 28.4 °F 65% 30.03 in 10.0 mi West 13.8 mph - N/A   Clear
8:15 AM 39.2 °F 30.8 °F 28.4 °F 65% 30.04 in 10.0 mi West 15.0 mph 21.9 mph N/A   Clear
8:35 AM 41.0 °F 33.1 °F 28.4 °F 61% 30.04 in 10.0 mi WNW 15.0 mph 24.2 mph N/A   Clear
8:55 AM 42.8 °F 34.8 °F 28.4 °F 57% 30.05 in 10.0 mi West 17.3 mph - N/A   Clear
9:15 AM 42.8 °F 34.5 °F 28.4 °F 57% 30.05 in 10.0 mi West 18.4 mph 25.3 mph N/A   Clear
9:55 AM 42.8 °F 35.1 °F 28.4 °F 57% 30.06 in 10.0 mi WNW 16.1 mph 25.3 mph N/A   Partly Cloudy
10:15 AM 42.8 °F 35.1 °F 28.4 °F 57% 30.07 in 10.0 mi West 16.1 mph 21.9 mph N/A   Mostly Cloudy
10:35 AM 44.6 °F 37.2 °F 28.4 °F 53% 30.07 in 10.0 mi NW 17.3 mph 25.3 mph N/A   Mostly Cloudy
10:55 AM 44.6 °F 37.8 °F 26.6 °F 49% 30.08 in 10.0 mi NW 15.0 mph 23.0 mph N/A   Mostly Cloudy
11:15 AM 46.4 °F 41.5 °F 28.4 °F 50% 30.08 in 10.0 mi NW 10.4 mph 19.6 mph N/A   Mostly Cloudy
11:35 AM 44.6 °F 39.2 °F 26.6 °F 49% 30.08 in 10.0 mi NW 10.4 mph - N/A   Mostly Cloudy
11:55 AM - - - N/A% 30.08 in 10.0 mi NNW 16.1 mph 19.6 mph N/A   Overcast
12:15 PM - - - N/A% 30.09 in 10.0 mi NW 15.0 mph 24.2 mph N/A   Overcast
7:55 PM 42.8 °F 40.1 °F 26.6 °F 53% 30.15 in 10.0 mi WNW 4.6 mph - N/A   Overcast
8:15 PM 42.8 °F 39.3 °F 26.6 °F 53% 30.16 in 10.0 mi WNW 5.8 mph - N/A   Overcast
8:35 PM 42.8 °F 39.3 °F 26.6 °F 53% 30.15 in 10.0 mi WNW 5.8 mph - N/A   Overcast
8:55 PM 42.8 °F 39.3 °F 26.6 °F 53% 30.16 in 10.0 mi West 5.8 mph - N/A   Overcast
9:15 PM 42.8 °F 38.6 °F 26.6 °F 53% 30.16 in 10.0 mi WNW 6.9 mph - N/A   Overcast
9:35 PM 42.8 °F 38.0 °F 26.6 °F 53% 30.16 in 10.0 mi WNW 8.1 mph - N/A   Overcast
9:55 PM 42.8 °F 38.6 °F 26.6 °F 53% 30.15 in 10.0 mi NW 6.9 mph - N/A   Overcast
10:15 PM - - - N/A% 30.15 in 10.0 mi NW 9.2 mph - N/A   Overcast
10:35 PM - - - N/A% 30.15 in 10.0 mi NW 8.1 mph - N/A   Overcast
10:55 PM - - - N/A% 30.15 in 10.0 mi NW 8.1 mph - N/A   Overcast
11:15 PM - - - N/A% 30.15 in 10.0 mi NW 8.1 mph - N/A   Overcast
11:35 PM - - - N/A% 30.15 in 10.0 mi NW 9.2 mph - N/A   Overcast
11:55 PM - - - N/A% 30.15 in 10.0 mi WNW 8.1 mph - N/A   Overcast